Back to catalog

FENGYUN 1C DEB

AliveSSO
NORAD 30526·DEBRIS·🇨🇳 China

Launched May 10, 1999 from Taiyuan Satellite Launch Center

Loading…

Next Passes (next 24 hours)

TLE

FreshSource: Space-Track

Epoch: Sep 14, 2026, 03:06 UTC

1 30526U 99025AJQ 26257.12959680  .00000922  00000-0  11321-2 0  9996
2 30526  99.5327 333.1924 0305748 295.3196  61.6561 13.50258143963746

Track FENGYUN 1C DEB in real time with AllMySat

Download on the App Store